Weather History for Woensdrecht, Netherlands

Change the Weather History Date:

Tuesday, September 3, 2013

  Actual Average Record
Temperature  
Mean Temperature 65 °F -  
Max Temperature 77 °F 65 °F 84 °F (2011)
Min Temperature 53 °F 50 °F 41 °F (2003)
Growing Degree Days 15 (Base 50)    
Moisture  
Dew Point 58 °F    
Average Humidity 88    
Maximum Humidity 100    
Minimum Humidity 57    
Precipitation  
Precipitation 0.00 in - - ()
Sea Level Pressure  
Sea Level Pressure 30.31 in    
Wind  
Wind Speed 3 mph ()    
Max Wind Speed 8 mph    
Max Gust Speed -    
Visibility 4.6 miles    
Events Fog    
Averages and records for this station are not official NWS values.
T = Trace of Precipitation, MM = Missing Value Source: Averaged Metar Reports

Daily Weather History Graph

Daily Weather History Graph

Search for Another Location

Airport:

Trip Planner

Search our weather history database for the weather conditions in past years. The results will help you decide how hot, cold, wet, or windy it might be!

Date:

Astronomy

Sep. 03, 2013 Rise Set
Actual Time 6:58 AM CEST 8:24 PM CEST
Civil Twilight 6:23 AM CEST 8:58 PM CEST
Nautical Twilight 5:41 AM CEST 9:40 PM CEST
Astronomical Twilight 4:55 AM CEST 10:26 PM CEST
Moon 4:49 AM CEST (9/3) 7:06 PM CEST (9/3)
Length of Visible Light 14h 34m
Length of Day
13h 25m
Waning Crescent, 4% of the Moon is Illuminated
Sep 3
Waning Crescent
Sep 5
New
Sep 12
First Quarter
Sep 19
Full
Sep 27
Last Quarter

Hourly Weather History & Observations

Time (CEST) Temp. Dew Point Humidity Pressure Visibility Wind Dir Wind Speed Gust Speed Precip Events Conditions
12:25 AM 57.2 °F 55.4 °F 94% 30.30 in 6.2 mi SW 3.5 mph - N/A   Unknown
12:55 AM 59.0 °F 55.4 °F 88% 30.30 in 6.2 mi SW 3.5 mph - N/A   Unknown
1:25 AM 57.2 °F 53.6 °F 88% 30.30 in 6.2 mi WSW 4.6 mph - N/A   Unknown
1:55 AM 55.4 °F 53.6 °F 94% 30.30 in 6.2 mi WSW 3.5 mph - N/A   Unknown
2:25 AM 55.4 °F 55.4 °F 100% 30.30 in 6.2 mi WSW 3.5 mph - N/A   Unknown
2:55 AM 57.2 °F 55.4 °F 94% 30.30 in 6.2 mi SW 3.5 mph - N/A   Unknown
3:25 AM 57.2 °F 55.4 °F 94% 30.30 in 5.0 mi SW 1.2 mph - N/A   Mist
3:38 AM 57.2 °F 55.4 °F 94% 30.30 in 4.3 mi SW 2.3 mph - N/A   Mist
3:42 AM 57.2 °F 55.4 °F 94% 30.30 in 5.0 mi SW 2.3 mph - N/A   Mist
3:46 AM 57.2 °F 55.4 °F 94% 30.30 in 4.3 mi SW 2.3 mph - N/A   Mist
3:50 AM 55.4 °F 55.4 °F 100% 30.30 in 5.0 mi WSW 2.3 mph - N/A   Mist
3:55 AM 55.4 °F 55.4 °F 100% 30.30 in 4.3 mi West 2.3 mph - N/A   Mist
4:00 AM 57.2 °F 55.4 °F 94% 30.30 in 5.0 mi WSW 2.3 mph - N/A   Mist
4:04 AM 57.2 °F 57.2 °F 100% 30.30 in 4.3 mi SW 2.3 mph - N/A   Mist
4:08 AM 55.4 °F 55.4 °F 100% 30.30 in 5.0 mi SSW 2.3 mph - N/A   Mist
4:13 AM 53.6 °F 53.6 °F 100% 30.30 in 4.3 mi WSW 2.3 mph - N/A   Mist
4:25 AM 55.4 °F 55.4 °F 100% 30.30 in - SW 2.3 mph - N/A   Mist
4:30 AM 55.4 °F 55.4 °F 100% 30.30 in 3.1 mi South 1.2 mph - N/A   Mist
4:33 AM 55.4 °F 55.4 °F 100% 30.30 in 5.0 mi South 1.2 mph - N/A   Mist
4:40 AM 55.4 °F 55.4 °F 100% 30.30 in 3.7 mi South 2.3 mph - N/A   Mist
4:47 AM 53.6 °F 51.8 °F 94% 30.30 in 5.0 mi West 1.2 mph - N/A   Mist
4:55 AM 53.6 °F 53.6 °F 100% 30.30 in 4.3 mi SW 1.2 mph - N/A   Mist
5:02 AM 53.6 °F 51.8 °F 94% 30.30 in 5.0 mi SW 2.3 mph - N/A   Partly Cloudy
5:09 AM 55.4 °F 53.6 °F 94% 30.30 in 3.1 mi SSW 2.3 mph - N/A   Mist
5:13 AM 55.4 °F 53.6 °F 94% 30.30 in - SSW 1.2 mph - N/A   Mist
5:25 AM 55.4 °F 55.4 °F 100% 30.30 in - WSW 2.3 mph - N/A   Mist
5:37 AM 53.6 °F 53.6 °F 100% 30.30 in - SW 2.3 mph - N/A   Mist
5:42 AM 53.6 °F 53.6 °F 100% 30.30 in - SSW 2.3 mph - N/A   Mist
5:46 AM 53.6 °F 51.8 °F 94% 30.30 in - SW 2.3 mph - N/A   Mist
5:55 AM 53.6 °F 53.6 °F 100% 30.30 in 1.8 mi WSW 2.3 mph - N/A   Mist
6:09 AM 53.6 °F 53.6 °F 100% 30.30 in 1.4 mi WSW 2.3 mph - N/A   Mist
6:13 AM 53.6 °F 53.6 °F 100% 30.30 in 0.5 mi West 2.3 mph - N/A Fog Fog
6:14 AM 55.4 °F 53.6 °F 94% 30.30 in 1.1 mi WSW 2.3 mph - N/A   Mist
6:25 AM 53.6 °F 53.6 °F 100% 30.30 in - WSW 2.3 mph - N/A Fog Fog
6:29 AM 53.6 °F 53.6 °F 100% 30.30 in 1.7 mi WSW 1.2 mph - N/A   Mist
6:35 AM 53.6 °F 53.6 °F 100% 30.30 in - WSW 1.2 mph - N/A   Mist
6:37 AM 53.6 °F 53.6 °F 100% 30.30 in - WSW 1.2 mph - N/A   Mist
6:46 AM 53.6 °F 53.6 °F 100% 30.30 in - SSW 1.2 mph - N/A   Mist
6:55 AM 53.6 °F 51.8 °F 94% 30.30 in - WSW 1.2 mph - N/A   Mist
7:05 AM 53.6 °F 53.6 °F 100% 30.30 in 2.8 mi SW 2.3 mph - N/A   Mist
7:09 AM 53.6 °F 51.8 °F 94% 30.30 in 1.7 mi SW 2.3 mph - N/A   Mist
7:17 AM 53.6 °F 53.6 °F 100% 30.30 in 0.7 mi SW 1.2 mph - N/A   Mist
7:20 AM 53.6 °F 53.6 °F 100% 30.30 in 1.1 mi WSW 2.3 mph - N/A   Mist
7:25 AM 55.4 °F 55.4 °F 100% 30.30 in 1.1 mi WSW 2.3 mph - N/A   Mist
7:38 AM 55.4 °F 55.4 °F 100% 30.30 in 1.4 mi SW 2.3 mph - N/A   Mist
7:50 AM 55.4 °F 55.4 °F 100% 30.30 in 1.8 mi SW 2.3 mph - N/A   Mist
7:55 AM 55.4 °F 55.4 °F 100% 30.30 in 1.5 mi SW 1.2 mph - N/A   Mist
8:12 AM 57.2 °F 57.2 °F 100% 30.33 in 1.8 mi West 1.2 mph - N/A   Mist
8:19 AM 59.0 °F 59.0 °F 100% 30.33 in - West 1.2 mph - N/A   Mist
8:25 AM 59.0 °F 59.0 °F 100% 30.33 in - WSW 1.2 mph - N/A   Mist
8:29 AM 59.0 °F 57.2 °F 94% 30.33 in - SW 1.2 mph - N/A   Mist
8:33 AM 59.0 °F 57.2 °F 94% 30.33 in 2.2 mi SW 2.3 mph - N/A   Mist
8:37 AM 59.0 °F 59.0 °F 100% 30.33 in 2.5 mi SSW 1.2 mph - N/A   Mist
8:41 AM 59.0 °F 59.0 °F 100% 30.33 in - Calm Calm - N/A   Mist
8:47 AM 59.0 °F 59.0 °F 100% 30.33 in 2.5 mi Calm Calm - N/A   Mist
8:55 AM 59.0 °F 59.0 °F 100% 30.33 in 2.8 mi Calm Calm - N/A   Mist
8:57 AM 60.8 °F 59.0 °F 94% 30.33 in - West 1.2 mph - N/A   Mist
9:09 AM 60.8 °F 59.0 °F 94% 30.33 in 3.1 mi WSW 1.2 mph - N/A   Mist
9:25 AM 62.6 °F 60.8 °F 94% 30.33 in 3.7 mi WSW 2.3 mph - N/A   Mist
9:39 AM 64.4 °F 60.8 °F 88% 30.33 in 5.0 mi WSW 3.5 mph - N/A   Partly Cloudy
9:40 AM 64.4 °F 60.8 °F 88% 30.33 in 4.3 mi WSW 3.5 mph - N/A   Mist
9:47 AM 66.2 °F 60.8 °F 83% 30.33 in 5.0 mi West 3.5 mph - N/A   Partly Cloudy
9:55 AM 66.2 °F 62.6 °F 88% 30.33 in 5.0 mi WSW 3.5 mph - N/A   Mist
10:08 AM 66.2 °F 62.6 °F 88% 30.33 in 6.2 mi WSW 4.6 mph - N/A   Unknown
10:25 AM 68.0 °F 60.8 °F 78% 30.33 in 6.2 mi West 3.5 mph - N/A   Unknown
10:55 AM 69.8 °F 60.8 °F 73% 30.33 in 6.2 mi West 4.6 mph - N/A   Partly Cloudy
11:25 AM 69.8 °F 60.8 °F 73% 30.33 in 6.2 mi West 6.9 mph - N/A   Unknown
11:55 AM 71.6 °F 60.8 °F 69% 30.33 in 6.2 mi West 6.9 mph - N/A   Unknown
12:25 PM 71.6 °F 59.0 °F 64% 30.33 in 6.2 mi WSW 4.6 mph - N/A   Partly Cloudy
12:55 PM 73.4 °F 60.8 °F 65% 30.33 in 6.2 mi NW 3.5 mph - N/A   Unknown
1:25 PM 73.4 °F 59.0 °F 61% 30.33 in 6.2 mi SW 4.6 mph - N/A   Unknown
1:54 PM 73.4 °F 59.0 °F 61% 30.33 in 6.2 mi NW 5.8 mph - N/A   Scattered Clouds
1:55 PM 75.2 °F 60.8 °F 61% 30.33 in 6.2 mi NW 5.8 mph - N/A   Partly Cloudy
2:25 PM 75.2 °F 60.8 °F 61% 30.33 in 6.2 mi West 8.1 mph - N/A   Mostly Cloudy
2:55 PM 75.2 °F 59.0 °F 57% 30.33 in 6.2 mi WSW 5.8 mph - N/A   Mostly Cloudy
3:25 PM 77.0 °F 60.8 °F 57% 30.30 in 6.2 mi WNW 4.6 mph - N/A   Mostly Cloudy
3:32 PM 75.2 °F 60.8 °F 61% 30.30 in 0.6 mi WNW 4.6 mph - N/A   Haze
3:36 PM 77.0 °F 60.8 °F 57% 30.30 in 6.2 mi West 4.6 mph - N/A   Overcast
3:49 PM 77.0 °F 60.8 °F 57% 30.30 in 6.2 mi NE 2.3 mph - N/A   Mostly Cloudy
3:55 PM 77.0 °F 60.8 °F 57% 30.30 in 6.2 mi North 2.3 mph - N/A   Overcast
4:25 PM 75.2 °F 60.8 °F 61% 30.30 in 6.2 mi West 6.9 mph - N/A   Overcast
4:55 PM 75.2 °F 60.8 °F 61% 30.30 in 6.2 mi WNW 5.8 mph - N/A   Overcast
5:25 PM 73.4 °F 62.6 °F 69% 30.30 in 6.2 mi West 5.8 mph - N/A   Overcast
5:55 PM 73.4 °F 62.6 °F 69% 30.30 in 6.2 mi WNW 4.6 mph - N/A   Overcast
6:25 PM 75.2 °F 62.6 °F 65% 30.30 in 6.2 mi NW 5.8 mph - N/A   Overcast
6:55 PM 75.2 °F 60.8 °F 61% 30.27 in 6.2 mi North 5.8 mph - N/A   Partly Cloudy
7:25 PM 73.4 °F 60.8 °F 65% 30.27 in 6.2 mi North 5.8 mph - N/A   Scattered Clouds
7:55 PM 71.6 °F 60.8 °F 69% 30.27 in 6.2 mi North 4.6 mph - N/A   Unknown
8:25 PM 68.0 °F 60.8 °F 78% 30.27 in 6.2 mi NNE 2.3 mph - N/A   Unknown
8:44 PM 66.2 °F 62.6 °F 88% 30.30 in 4.3 mi North 2.3 mph - N/A   Partly Cloudy
8:45 PM 66.2 °F 62.6 °F 88% 30.30 in 6.2 mi North 2.3 mph - N/A   Partly Cloudy
8:55 PM 66.2 °F 62.6 °F 88% 30.30 in 6.2 mi North 2.3 mph - N/A   Unknown
9:08 PM 64.4 °F 60.8 °F 88% 30.30 in 6.2 mi NE 1.2 mph - N/A   Unknown
9:25 PM 62.6 °F 60.8 °F 94% 30.30 in 6.2 mi ENE 1.2 mph - N/A   Unknown
9:55 PM 62.6 °F 59.0 °F 88% 30.30 in 6.2 mi ENE 1.2 mph - N/A   Unknown
10:25 PM 60.8 °F 60.8 °F 100% 30.30 in 6.2 mi ENE 1.2 mph - N/A   Unknown
10:55 PM 62.6 °F 60.8 °F 94% 30.30 in 6.2 mi ENE 3.5 mph - N/A   Unknown
11:25 PM 62.6 °F 60.8 °F 94% 30.30 in 6.2 mi ENE 3.5 mph - N/A   Unknown
11:55 PM 60.8 °F 60.8 °F 100% 30.30 in 6.2 mi ENE 3.5 mph - N/A   Unknown